GW3724 Weather Reports


time (UTC)temp
C
wind
direction
speed
KPH
gust
KPH
rain 1hr
cm
rain 24hr
cm
rain mn
cm
humidity
%
barometer
mb
20260503210557 28 326 6.4 14.5 0.00 0.00 0.00 48 1010.7
20260503210101 28 277 6.4 14.5 0.00 0.00 0.00 46 1010.8
20260503205557 28 294 3.2 14.5 0.00 0.00 0.00 48 1010.9
20260503205059 28 305 3.2 14.5 0.00 0.00 0.00 50 1010.9
20260503204559 28 277 4.8 14.5 0.00 0.00 0.00 52 1011.0
20260503204057 28 331 4.8 12.9 0.00 0.00 0.00 50 1011.1
20260503203557 28 321 3.2 12.9 0.00 0.00 0.00 52 1011.3
20260503203110 27 312 4.8 12.9 0.00 0.00 0.00 52 1011.3
20260503202557 27 264 6.4 12.9 0.00 0.00 0.00 55 1011.3
20260503202101 27 278 3.2 12.9 0.00 0.00 0.00 55 1011.4
20260503201557 27 269 6.4 12.9 0.00 0.00 0.00 55 1011.4
20260503201058 26 294 4.8 14.5 0.00 0.00 0.00 55 1011.5
20260503200601 26 299 8.0 14.5 0.00 0.00 0.00 55 1011.6
20260503200058 26 233 4.8 16.1 0.00 0.00 0.00 57 1011.6
20260503195557 26 234 4.8 16.1 0.00 0.00 0.00 58 1011.7
20260503195057 26 241 4.8 14.5 0.00 0.00 0.00 55 1011.8
20260503194558 26 273 3.2 12.9 0.00 0.00 0.00 56 1011.8
20260503194057 26 260 3.2 12.9 0.00 0.00 0.00 55 1011.9
20260503193558 26 252 3.2 9.7 0.00 0.00 0.00 55 1012.0
20260503193057 26 300 4.8 12.9 0.00 0.00 0.00 56 1012.0
20260503192558 25 286 3.2 14.5 0.00 0.00 0.00 54 1012.1
20260503192057 25 265 4.8 14.5 0.00 0.00 0.00 51 1012.2
20260503191555 25 349 4.8 14.5 0.00 0.00 0.00 50 1012.3
20260503191057 25 326 3.2 11.3 0.00 0.00 0.00 49 1012.4
20260503190557 25 272 4.8 11.3 0.00 0.00 0.00 48 1012.5
20260503190059 25 299 4.8 11.3 0.00 0.00 0.00 46 1012.5
20260503185558 25 293 3.2 11.3 0.00 0.00 0.00 47 1012.5
20260503185057 25 347 4.8 11.3 0.00 0.00 0.00 52 1012.6
20260503184557 24 317 4.8 9.7 0.00 0.00 0.00 51 1012.6
20260503184059 24 340 0.0 12.9 0.00 0.00 0.00 52 1012.7
20260503183556 23 331 4.8 12.9 0.00 0.00 0.00 52 1012.8
20260503183101 23 223 1.6 9.7 0.00 0.00 0.00 54 1012.9
20260503182556 23 313 3.2 9.7 0.00 0.00 0.00 52 1013.0
20260503182058 23 0 0.0 9.7 0.00 0.00 0.00 52 1013.0
20260503181605 23 243 1.6 9.7 0.00 0.00 0.00 54 1013.1
20260503181057 23 243 1.6 6.4 0.00 0.00 0.00 52 1013.1
20260503180558 23 273 1.6 6.4 0.00 0.00 0.00 52 1013.1
20260503180118 23 0 1.6 4.8 0.00 0.00 0.00 51 1013.1
20260503175558 22 0 1.6 6.4 0.00 0.00 0.00 51 1013.1
20260503175057 22 184 1.6 6.4 0.00 0.00 0.00 53 1013.1
20260503174559 22 254 0.0 9.7 0.00 0.00 0.00 52 1013.1
20260503174057 21 179 0.0 9.7 0.00 0.00 0.00 54 1013.2
20260503173558 21 117 3.2 9.7 0.00 0.00 0.00 53 1013.2
20260503173103 21 165 4.8 14.5 0.00 0.00 0.00 56 1013.3
20260503172557 21 190 4.8 14.5 0.00 0.00 0.00 56 1013.3
20260503172056 21 153 4.8 14.5 0.00 0.00 0.00 54 1013.3
20260503171603 21 130 6.4 16.1 0.00 0.00 0.00 51 1013.3
20260503171056 21 159 4.8 16.1 0.00 0.00 0.00 52 1013.2
20260503170558 21 167 3.2 16.1 0.00 0.00 0.00 51 1013.3
20260503150557 16 135 14.5 20.9 0.00 0.00 0.00 65 1013.9
20260503131056 15 160 17.7 29.0 0.00 0.00 0.00 72 1013.4
20260503130559 15 136 16.1 30.6 0.00 0.00 0.00 72 1013.5
20260503110558 15 123 12.9 22.5 0.00 0.00 0.00 76 1013.8
20260503081556 13 0 0.0 0.0 0.00 0.00 0.00 93 1014.2
20260503081058 13 0 0.0 0.0 0.00 0.00 0.00 93 1014.3
20260503080558 12 0 0.0 0.0 0.00 0.00 0.00 94 1014.3
20260503072557 12 0 0.0 3.2 0.00 0.00 0.00 93 1014.2
20260503072058 12 0 0.0 4.8 0.00 0.00 0.00 93 1014.2
20260503071605 12 152 1.6 4.8 0.00 0.00 0.00 94 1014.2
20260503071057 12 152 1.6 4.8 0.00 0.00 0.00 93 1014.2
20260503070557 12 152 0.0 6.4 0.00 0.00 0.00 92 1014.1
20260503070103 12 152 0.0 6.4 0.00 0.00 0.00 91 1014.1
20260503060110 15 0 0.0 3.2 0.00 0.00 0.00 87 1014.1
20260503055058 15 146 0.0 3.2 0.00 0.00 0.00 86 1014.0
20260503054601 15 0 0.0 3.2 0.00 0.00 0.00 86 1013.9
20260503054057 15 0 0.0 3.2 0.00 0.00 0.00 86 1013.8
20260503053555 15 0 0.0 3.2 0.00 0.00 0.00 86 1013.7
20260503053055 15 0 0.0 3.2 0.00 0.00 0.00 86 1013.7
20260503052557 15 0 1.6 3.2 0.00 0.00 0.00 86 1013.7
20260503052058 15 146 0.0 3.2 0.00 0.00 0.00 85 1013.7
20260503051555 15 0 0.0 3.2 0.00 0.00 0.00 83 1013.6
20260503051054 16 0 0.0 4.8 0.00 0.00 0.00 83 1013.6
20260503050556 16 0 0.0 4.8 0.00 0.00 0.00 82 1013.6
20260503050055 16 146 1.6 4.8 0.00 0.00 0.00 82 1013.5
20260503045556 16 0 0.0 4.8 0.00 0.00 0.00 81 1013.4
20260503045058 16 0 0.0 4.8 0.00 0.00 0.00 82 1013.4
20260503044609 16 0 1.6 4.8 0.00 0.00 0.00 82 1013.3
20260503044057 16 121 1.6 4.8 0.00 0.00 0.00 82 1013.4
20260503043557 16 121 1.6 6.4 0.00 0.00 0.00 83 1013.3
20260503043117 16 134 0.0 6.4 0.00 0.00 0.00 82 1013.3
20260503042557 16 134 3.2 6.4 0.00 0.00 0.00 81 1013.3
20260503042055 17 137 4.8 6.4 0.00 0.00 0.00 80 1013.2
20260503041601 17 137 0.0 3.2 0.00 0.00 0.00 79 1013.0
20260503041056 17 0 0.0 4.8 0.00 0.00 0.00 78 1013.0
20260503040558 17 0 1.6 6.4 0.00 0.00 0.00 78 1012.8
20260503040106 17 97 1.6 6.4 0.00 0.00 0.00 76 1012.7
20260503035558 18 97 3.2 6.4 0.00 0.00 0.00 75 1012.6
20260503035059 18 109 0.0 4.8 0.00 0.00 0.00 73 1012.5
20260503034557 20 96 1.6 4.8 0.00 0.00 0.00 70 1012.4
20260503034058 21 0 0.0 3.2 0.00 0.00 0.00 66 1012.3
20260503033558 21 140 0.0 3.2 0.00 0.00 0.00 64 1012.2
20260503033110 21 0 0.0 1.6 0.00 0.00 0.00 62 1012.1
20260503032557 22 0 0.0 1.6 0.00 0.00 0.00 61 1012.1
20260503032057 22 0 0.0 3.2 0.00 0.00 0.00 61 1012.0
20260503031604 22 0 0.0 3.2 0.00 0.00 0.00 59 1012.0
20260503031057 22 0 0.0 3.2 0.00 0.00 0.00 59 1011.9
20260503030557 22 0 0.0 6.4 0.00 0.00 0.00 60 1011.8
20260503030058 23 0 1.6 6.4 0.00 0.00 0.00 60 1011.8
20260503025557 23 148 1.6 4.8 0.00 0.00 0.00 58 1011.7
20260503025057 23 0 0.0 6.4 0.00 0.00 0.00 56 1011.7
20260503024600 24 154 1.6 6.4 0.00 0.00 0.00 55 1011.7
20260503024056 25 0 0.0 6.4 0.00 0.00 0.00 53 1011.6
20260503023600 25 155 0.0 6.4 0.00 0.00 0.00 53 1011.6
20260503023105 25 0 0.0 4.8 0.00 0.00 0.00 52 1011.6
20260503022557 25 132 0.0 4.8 0.00 0.00 0.00 53 1011.6
20260503022057 25 131 0.0 4.8 0.00 0.00 0.00 52 1011.5
20260503021606 25 200 0.0 3.2 0.00 0.00 0.00 52 1011.5
20260503021057 25 126 0.0 8.0 0.00 0.00 0.00 52 1011.5
20260503020557 26 0 0.0 9.7 0.00 0.00 0.00 51 1011.5
20260503020108 26 129 3.2 9.7 0.00 0.00 0.00 51 1011.5
20260503015557 26 232 1.6 4.8 0.00 0.00 0.00 49 1011.5
20260503015057 26 253 1.6 6.4 0.00 0.00 0.00 49 1011.5
20260503014600 26 221 1.6 6.4 0.00 0.00 0.00 48 1011.5
20260503014057 27 0 0.0 3.2 0.00 0.00 0.00 47 1011.5
20260503013557 26 0 0.0 6.4 0.00 0.00 0.00 48 1011.4
20260503013106 26 0 1.6 6.4 0.00 0.00 0.00 48 1011.5
20260503012558 26 249 1.6 8.0 0.00 0.00 0.00 48 1011.5
20260503012054 26 264 1.6 8.0 0.00 0.00 0.00 49 1011.4
20260503011608 26 231 3.2 8.0 0.00 0.00 0.00 48 1011.4
20260503011057 26 261 3.2 6.4 0.00 0.00 0.00 48 1011.5
20260503010557 26 0 1.6 6.4 0.00 0.00 0.00 48 1011.5
20260503010100 26 264 1.6 9.7 0.00 0.00 0.00 48 1011.4
20260503005600 26 235 1.6 9.7 0.00 0.00 0.00 49 1011.4
20260503005058 26 278 4.8 9.7 0.00 0.00 0.00 49 1011.4
20260503004607 26 239 1.6 11.3 0.00 0.00 0.00 49 1011.4
20260503004057 26 0 3.2 11.3 0.00 0.00 0.00 49 1011.5
20260503003557 26 238 4.8 11.3 0.00 0.00 0.00 51 1011.5
20260503003108 26 254 1.6 11.3 0.00 0.00 0.00 51 1011.5
20260503002558 26 273 4.8 11.3 0.00 0.00 0.00 51 1011.5
20260503002057 26 229 3.2 9.7 0.00 0.00 0.00 51 1011.6
20260503001557 26 306 3.2 11.3 0.00 0.00 0.00 51 1011.6
20260503001057 26 248 3.2 11.3 0.00 0.00 0.00 52 1011.5
20260503000557 26 260 3.2 9.7 0.00 0.00 0.00 52 1011.6
20260503000109 26 258 3.2 9.7 0.00 0.00 0.00 51 1011.7
20260502235557 26 0 0.0 9.7 0.00 0.00 0.00 50 1011.7
20260502235057 26 0 3.2 9.7 0.00 0.00 0.00 52 1011.8
20260502234557 25 244 3.2 9.7 0.00 0.00 0.00 51 1011.8
20260502234057 25 0 0.0 9.7 0.00 0.00 0.00 52 1011.9
20260502233556 25 251 4.8 9.7 0.00 0.00 0.00 52 1012.0
20260502233100 25 351 3.2 8.0 0.00 0.00 0.00 54 1012.1
20260502232557 25 263 0.0 6.4 0.00 0.00 0.00 57 1012.2
20260502232057 25 267 1.6 9.7 0.00 0.00 0.00 56 1012.3
20260502231621 25 236 1.6 9.7 0.00 0.00 0.00 59 1012.4
20260502231058 24 0 4.8 9.7 0.00 0.00 0.00 57 1012.5
20260502230558 24 288 1.6 11.3 0.00 0.00 0.00 58 1012.5
20260502230113 24 346 1.6 11.3 0.00 0.00 0.00 58 1012.6
20260502225557 23 309 0.0 6.4 0.00 0.00 0.00 62 1012.7
20260502225057 23 281 3.2 6.4 0.00 0.00 0.00 60 1012.7
20260502224557 23 250 1.6 9.7 0.00 0.00 0.00 61 1012.8
20260502224057 23 78 1.6 9.7 0.00 0.00 0.00 60 1012.8
20260502223557 23 258 3.2 9.7 0.00 0.00 0.00 62 1012.9
20260502223103 23 226 3.2 8.0 0.00 0.00 0.00 61 1013.1
20260502222557 22 195 1.6 6.4 0.00 0.00 0.00 61 1013.2
20260502222100 22 286 1.6 6.4 0.00 0.00 0.00 62 1013.2
20260502221556 22 0 1.6 11.3 0.00 0.00 0.00 63 1013.4
20260502221058 22 123 0.0 11.3 0.00 0.00 0.00 64 1013.4
20260502220558 22 275 1.6 9.7 0.00 0.00 0.00 64 1013.6
20260502215557 21 325 3.2 12.9 0.00 0.00 0.00 66 1013.8
20260502215058 21 281 4.8 12.9 0.00 0.00 0.00 67 1013.9
20260502214557 21 284 6.4 12.9 0.00 0.00 0.00 67 1013.9
20260502214057 21 332 3.2 12.9 0.00 0.00 0.00 67 1014.0
20260502213557 20 315 4.8 12.9 0.00 0.00 0.00 67 1014.0
20260502213057 20 348 4.8 12.9 0.00 0.00 0.00 70 1014.0
20260502212557 20 313 8.0 12.9 0.00 0.00 0.00 68 1014.1
20260502212058 19 271 4.8 11.3 0.00 0.00 0.00 69 1014.1
20260502211557 19 262 4.8 12.9 0.00 0.00 0.00 69 1014.1
20260502211055 19 267 6.4 12.9 0.00 0.00 0.00 70 1014.2